South Lake Tahoe, CA

7:50 AM PDT on March 27, 2017 (GMT -0700)
Lake Tahoe

Weather History for KTVL - May, 2014

Change the Weather History Date:

Wednesday, May 14, 2014

  Actual Average Record
Temperature  
Mean Temperature 53 °F 48 °F  
Max Temperature 75 °F 63 °F 76 °F (1997)
Min Temperature 31 °F 32 °F 18 °F (1968)
Degree Days  
Heating Degree Days 12 17  
Month to date heating degree days 240 268  
Since 1 July heating degree days 6281 7158  
Cooling Degree Days 0 0  
Month to date cooling degree days 0 0  
Year to date cooling degree days 0 0  
Growing Degree Days 2 (Base 50)    
Moisture  
Dew Point 25 °F    
Average Humidity 42    
Maximum Humidity 72    
Minimum Humidity 11    
Precipitation  
Precipitation 0.00 in - 0.83 in (1949)
Month to date precipitation 0.25  
Year to date precipitation 11.35  
Sea Level Pressure  
Sea Level Pressure 30.29 in    
Wind  
Wind Speed 3 mph (ESE)    
Max Wind Speed 12 mph    
Max Gust Speed 19 mph    
Visibility 10 miles    
Events      
T = Trace of Precipitation, MM = Missing Value Source: NWS Daily Summary

Daily Weather History Graph

Daily Weather History Graph

Search for Another Location

Airport or City:

Trip Planner

Search our weather history database for the weather conditions in past years. The results will help you decide how hot, cold, wet, or windy it might be!

Date:

Astronomy

May. 14, 2014 Rise Set
Actual Time 5:48 AM PDT 8:04 PM PDT
Civil Twilight 5:18 AM PDT 8:34 PM PDT
Nautical Twilight 4:41 AM PDT 9:11 PM PDT
Astronomical Twilight 4:01 AM PDT 9:52 PM PDT
Moon 8:15 PM PDT (5/14) 5:50 AM PDT (5/14)
Length of Visible Light 15h 16m
Length of Day
14h 16m
Full, 100% of the Moon is Illuminated
May 14
Full
May 14
Full
May 21
Last Quarter
May 28
New
Jun 5
First Quarter

Hourly Weather History & Observations

Time (PDT) Temp. Windchill Dew Point Humidity Pressure Visibility Wind Dir Wind Speed Gust Speed Precip Events Conditions
12:53 AM 39.9 °F 37.8 °F 27.0 °F 60% 30.33 in 10.0 mi Variable 3.5 mph - N/A   Clear
1:53 AM 37.0 °F - 26.1 °F 65% 30.32 in 10.0 mi Calm Calm - N/A   Clear
2:53 AM 35.1 °F 32.2 °F 25.0 °F 67% 30.33 in 10.0 mi South 3.5 mph - N/A   Clear
3:53 AM 34.0 °F - 24.1 °F 67% 30.33 in 10.0 mi Calm Calm - N/A   Clear
5:53 AM 30.9 °F 27.5 °F 23.0 °F 72% 30.35 in 10.0 mi SSW 3.5 mph - N/A   Clear
6:53 AM 34.0 °F - 24.1 °F 67% 30.37 in 10.0 mi Calm Calm - N/A   Clear
8:53 AM 57.0 °F - 21.9 °F 26% 30.34 in 10.0 mi NE 3.5 mph - N/A   Clear
9:53 AM 63.0 °F - 19.0 °F 18% 30.31 in 10.0 mi Variable 4.6 mph - N/A   Clear
10:53 AM 66.9 °F - 15.1 °F 14% 30.31 in 10.0 mi NNE 8.1 mph - N/A   Clear
11:53 AM 70.0 °F - 16.0 °F 13% 30.30 in 10.0 mi Variable 6.9 mph - N/A   Clear
12:53 PM 70.0 °F - 19.9 °F 15% 30.29 in 10.0 mi Variable 4.6 mph - N/A   Clear
2:53 PM 73.0 °F - 19.0 °F 13% 30.27 in 10.0 mi Variable 4.6 mph - N/A   Clear
3:53 PM 73.9 °F - 16.0 °F 11% 30.25 in 10.0 mi NNE 9.2 mph - N/A   Clear
4:53 PM 73.9 °F - 15.1 °F 11% 30.25 in 10.0 mi NNE 8.1 mph - N/A   Clear
5:53 PM 73.0 °F - 24.1 °F 16% 30.24 in 10.0 mi Variable 3.5 mph - N/A   Clear
6:53 PM 69.1 °F - 30.9 °F 24% 30.23 in 10.0 mi Calm Calm - N/A   Clear
7:53 PM 61.0 °F - 36.0 °F 39% 30.25 in 10.0 mi Calm Calm - N/A   Clear
8:53 PM 55.9 °F - 34.0 °F 44% 30.24 in 10.0 mi Calm Calm - N/A   Clear
9:53 PM 53.1 °F - 36.0 °F 52% 30.26 in 10.0 mi SSW 3.5 mph - N/A   Clear
10:53 PM 48.9 °F - 34.0 °F 56% 30.26 in 10.0 mi Calm Calm - N/A   Clear
11:53 PM 48.0 °F - 34.0 °F 58% 30.25 in 10.0 mi SSW 3.5 mph - N/A   Clear